Regional Weather Roundup
Issued by NWS Green Bay, WI

Home | Current Version | Previous Version | Graphics & Text | Print | Product List | Glossary Off
Versions: 1 2 3 4 5 6 7 8 9 10 11 12 13 14 15 16 17 18 19 20 21 22 23 24 25 26 27 28 29 30 31 32 33 34 35 36 37 38 39 40 41 42 43 44 45 46 47 48 49 50

000
ASUS43 KGRB 300359
RWRGRB

NORTH-CENTRAL AND NORTHEAST WISCONSIN REGIONAL WEATHER ROUNDUP
NATIONAL WEATHER SERVICE GREEN BAY WI
1100 PM CDT FRI AUG 29 2014

WIZ005-009-010>012-018-019-300500-
NORTH CENTRAL WISCONSIN

CITY           SKY/WX    TMP DP  RH WIND       PRES   REMARKS
IRONWOOD       NOT AVBL
MANITOWISH WTR NOT AVBL
ARBOR VITAE    NOT AVBL
EAGLE RIVER    NOT AVBL
LAND O LAKES   NOT AVBL
RHINELANDER    LGT RAIN  64  63  96 SW3       29.85R FOG
PHILLIPS       NOT AVBL
ANTIGO         NOT AVBL
TOMAHAWK       NOT AVBL
MERRILL        NOT AVBL
$$

WIZ013-073-300500-
NORTHEAST WISCONSIN

CITY           SKY/WX    TMP DP  RH WIND       PRES   REMARKS
IRON MOUNTAIN  CLOUDY    65  64  97 E7        29.80F
MARINETTE      MOCLDY    70  66  88 N3        29.81F
$$

WIZ017-030-035>037-045-300500-
CENTRAL WISCONSIN

CITY           SKY/WX    TMP DP  RH WIND       PRES   REMARKS
MEDFORD        NOT AVBL
WAUSAU         LGT RAIN  66  65  96 CALM      29.82F
MOSINEE        NOT AVBL
MARSHFIELD     LGT RAIN  67  65  93 CALM      29.81S
WISC RAPIDS    CLOUDY    67  67 100 W3        29.80F
STEVENS POINT  NOT AVBL
WAUPACA        NOT AVBL
SHAWANO        CLOUDY    74  66  76 NE6       29.81F
CLINTONVILLE   NOT AVBL
$$

WIZ038-039-048-051-300500-
FOX VALLEY

CITY           SKY/WX    TMP DP  RH WIND       PRES   REMARKS
NWS GREEN BAY  PTCLDY    73  71  93 S7        29.81F FOG
APPLETON       MOCLDY    73  72  94 S8        29.82S
OSHKOSH        MOCLDY    74  71  91 S10       29.81F
FOND DU LAC    MOCLDY    75  70  84 S13       29.83S
$$

WIZ022-050-052-300500-
EAST CENTRAL WISCONSIN

CITY           SKY/WX    TMP DP  RH WIND       PRES   REMARKS
STURGEON BAY   MOCLDY    70  66  88 S13       29.83F
MANITOWOC      NOT AVBL
SHEBOYGAN      PTCLDY    72  70  93 S8        29.85S FOG
$$

LMZ563-521-522-541>543-300500-
LAKESHORE

STATION/POSITION TIME  TEMP    WIND        PRES    VSBY  WAVE
                       AIR SEA DIR/SP/G                  HT/PER
                 (UTC) (F)     (DEG/KT/KT) (MB)    (MI)  (FT/S)
SHEBOYGAN LKSHOR 0300   68 63  170/ 15/ 16 1010.8F
KEWAUNEE LKSHORE 0300   65     180/ 13/ 16 1009.6F
TWO RIVERS CG    0300                      1015.8          3
NORTHPORT PIER   0300   69     160/ 11/ 21 1010.2S
N MID LAKE BUOY  0300   69 65  190/ 17/ 19 1010.1R         5/ 6
SISTER BAY LKSHO 0300   70     160/ 20/ 26   N/A
CHAMBERS ISLAND  0300   70     250/  7/ 12 1010.2S
MENOMINEE LKSHOR 0300   72     100/  1/  2 1010.3F
$$


USA.gov is the U.S. government's official web portal to all federal, state and local government web resources and services.